Location: Le Rocchette
(44.3500°N, 7.8333°E)
Time: 03:12:18
(UTC+00:00)

ATLAS 2AS CENTAUR R/B - Pass Details

Date: 17 November 2019
Orbit: 926 x 1286 km, 63.7° (Epoch: 09 December)

Event Time Altitude Azimuth Distance (km) Brightness Sun altitude
Exits shadow 05:19:27 - 318° (NW) 3,345 4.8 -12.1°
Reaches altitude 10° 05:19:57 10° 318° (NW) 3,176 4.7 -12.0°
Maximum altitude 05:27:24 60° 241° (WSW) 1,301 3.0 -10.7°
Drops below altitude 10° 05:34:12 10° 163° (SSE) 2,906 5.5 -9.5°
Sets 05:36:45 0° 160° (SSE) 3,807 6.2 -9.1°
